Ocean City, MD

9:10 PM EDT on July 23, 2017 (GMT -0400)
Ocean City Municipal

Weather History for KOXB - October, 2012

Change the Weather History Date:

Thursday, October 11, 2012

  Actual Average (KSBY) Record (KSBY)
Temperature  
Mean Temperature 52 °F -  
Max Temperature 62 °F 69 °F 89 °F (1919)
Min Temperature 42 °F 47 °F 30 °F (1925)
Degree Days  
Heating Degree Days 14    
Growing Degree Days 2 (Base 50)    
Moisture  
Dew Point 40 °F    
Average Humidity 68    
Maximum Humidity 93    
Minimum Humidity 41    
Precipitation  
Precipitation 0.00 in - - ()
Sea Level Pressure  
Sea Level Pressure 30.20 in    
Wind  
Wind Speed 6 mph (NW)    
Max Wind Speed 12 mph    
Max Gust Speed -    
Visibility 10 miles    
Events      
Averages and records for this station are not official NWS values.
T = Trace of Precipitation, MM = Missing Value Source: NWS Daily Summary

Daily Weather History Graph

Daily Weather History Graph

Search for Another Location

Airport or City:

Trip Planner

Search our weather history database for the weather conditions in past years. The results will help you decide how hot, cold, wet, or windy it might be!

Date:

Astronomy

Oct. 11, 2012 Rise Set
Actual Time 7:05 AM EDT 6:27 PM EDT
Civil Twilight 6:39 AM EDT 6:54 PM EDT
Nautical Twilight 6:08 AM EDT 7:24 PM EDT
Astronomical Twilight 5:38 AM EDT 7:55 PM EDT
Moon 2:45 AM EDT (10/11) 3:59 PM EDT (10/11)
Length of Visible Light 12h 14m
Length of Day
11h 21m
Waning Crescent, 18% of the Moon is Illuminated
Oct 11
Waning Crescent
Oct 15
New
Oct 21
First Quarter
Oct 29
Full
Nov 6
Last Quarter

Hourly Weather History & Observations

Time (EDT) Temp. Windchill Dew Point Humidity Pressure Visibility Wind Dir Wind Speed Gust Speed Precip Events Conditions
12:53 AM 55.9 °F - 42.1 °F 60% 30.07 in 10.0 mi NNW 9.2 mph - N/A   Mostly Cloudy
1:53 AM 52.0 °F - 42.1 °F 69% 30.09 in 10.0 mi NNW 6.9 mph - N/A   Clear
2:53 AM 50.0 °F - 41.0 °F 71% 30.10 in 10.0 mi NW 6.9 mph - N/A   Clear
3:53 AM 48.0 °F - 41.0 °F 77% 30.12 in 10.0 mi NNW 5.8 mph - N/A   Clear
4:53 AM 48.0 °F - 41.0 °F 77% 30.15 in 10.0 mi West 3.5 mph - N/A   Clear
5:53 AM 42.1 °F - 39.9 °F 92% 30.17 in 10.0 mi Calm Calm - N/A   Clear
6:53 AM 42.1 °F - 39.9 °F 92% 30.20 in 10.0 mi Calm Calm - N/A   Clear
7:53 AM 46.0 °F 44.8 °F 42.1 °F 86% 30.23 in 10.0 mi NW 3.5 mph - N/A   Clear
8:53 AM 51.1 °F - 39.9 °F 66% 30.25 in 10.0 mi NNW 6.9 mph - N/A   Clear
9:53 AM 54.0 °F - 39.0 °F 57% 30.27 in 10.0 mi NNW 11.5 mph - N/A   Clear
10:53 AM 55.9 °F - 37.0 °F 49% 30.28 in 10.0 mi NW 8.1 mph - N/A   Clear
11:53 AM 57.0 °F - 37.0 °F 47% 30.27 in 10.0 mi NNW 4.6 mph - N/A   Clear
12:53 PM 59.0 °F - 37.0 °F 44% 30.25 in 10.0 mi NNW 8.1 mph - N/A   Clear
1:53 PM 61.0 °F - 37.0 °F 41% 30.23 in 10.0 mi Variable 5.8 mph - N/A   Clear
2:53 PM 60.1 °F - 42.1 °F 51% 30.23 in 10.0 mi Variable 3.5 mph - N/A   Clear
3:53 PM 61.0 °F - 39.9 °F 46% 30.22 in 10.0 mi WSW 6.9 mph - N/A   Clear
4:53 PM 60.1 °F - 43.0 °F 53% 30.21 in 10.0 mi SW 9.2 mph - N/A   Clear
7:53 PM 51.1 °F - 43.0 °F 74% 30.23 in 10.0 mi West 5.8 mph - N/A   Clear
8:53 PM 48.9 °F - 41.0 °F 74% 30.24 in 10.0 mi West 3.5 mph - N/A   Clear
9:53 PM 44.1 °F - 39.9 °F 85% 30.24 in 10.0 mi Calm Calm - N/A   Clear
10:53 PM 43.0 °F - 41.0 °F 93% 30.23 in 10.0 mi Calm Calm - N/A   Clear
11:53 PM 42.1 °F - 39.9 °F 92% 30.22 in 10.0 mi Calm Calm - N/A   Clear